Regional Weather Roundup
Issued by NWS

Home | Current Version | Previous Version | Graphics & Text | Print | Product List | Glossary On
Versions: 1 2 3 4 5 6 7 8 9 10 11 12 13 14 15 16 17 18 19 20 21 22 23 24 25 26 27 28 29 30 31 32 33 34 35 36 37 38 39 40 41 42 43 44 45 46 47 48 49 50
168
ASUS45 KPSR 212310
RWRAZ

ARIZONA HOURLY REGIONAL WEATHER ROUNDUP
NATIONAL WEATHER SERVICE PHOENIX AZ
400 PM MST TUE NOV 21 2017

NOTE: FAIR INDICATES FEW OR NO CLOUDS BELOW 12,000 FEET WITH NO
SIGNIFICANT WEATHER AND/OR OBSTRUCTIONS TO VISIBILITY.

AZZ001>003-036-220000-
NORTHWEST ARIZONA

CITY           SKY/WX    TMP DP  RH WIND       PRES   REMARKS
BULLHEAD CITY  PTSUNNY   79  10   7 N25G37    30.08S
KINGMAN        MOSUNNY   71  19  14 NE6       30.21F
$$

AZZ004>008-015-016-018-220000-
NORTH CENTRAL ARIZONA

CITY           SKY/WX    TMP DP  RH WIND       PRES   REMARKS
GRAND CANYON   MOSUNNY   59  28  30 NE16G22   30.37R
WILLIAMS       MOSUNNY   63  27  25 NE9       30.35R
PRESCOTT       PTSUNNY   72  25  17 CALM      30.24S
FLAGSTAFF      SUNNY     58  25  28 NE14G23   30.36R
PAYSON         SUNNY     70  23  17 N8        30.25R
PAGE           SUNNY     59  16  18 VRB3      30.30R
$$

AZZ009>014-017-220000-
NORTHEAST ARIZONA

CITY           SKY/WX    TMP DP  RH WIND       PRES   REMARKS
WINSLOW        SUNNY     65  14  14 NW3       30.29S
SAINT JOHNS    SUNNY     64  19  17 NW3       30.29R
WINDOW ROCK    SUNNY     65  28  24 CALM      30.31S
SHOW LOW       SUNNY     61  23  23 N12       30.33S
$$

AZZ540-542>544-546-548-220000-
GREATER PHOENIX AREA

CITY           SKY/WX    TMP DP  RH WIND       PRES   REMARKS
PHOENIX        PTSUNNY   78  24  13 NW7       30.03F
BUCKEYE        MOSUNNY   81  32  17 W6        30.05S
GLENDALE       PTSUNNY   79  27  14 CALM      30.06S
LUKE AFB       SUNNY     78  28  16 S7        30.03S
DEER VALLEY    PTSUNNY   77  21  12 NW3       30.05S
SCOTTSDALE     PTSUNNY   77  30  17 CALM      30.07S
MESA-FALCON    PTSUNNY   75  27  16 W7        30.06S
MESA-GATEWAY   PTSUNNY   75  27  16 NW6       30.05F
CHANDLER       PTSUNNY  N/A N/A N/A VRB5      30.04F
$$

AZZ539-553-220000-
SOUTHWEST MARICOPA COUNTY AND PINAL COUNTY

CITY           SKY/WX    TMP DP  RH WIND       PRES   REMARKS
CASA GRANDE    NOT AVBL
GILA BEND      PTSUNNY   79  27  14 CALM      30.04S
$$

AZZ503-504-507>509-220000-
SOUTHEAST ARIZONA

CITY           SKY/WX    TMP DP  RH WIND       PRES   REMARKS
TUCSON         MOSUNNY   76  22  13 N10       30.09S
DAVIS-MONTHAN  SUNNY     74  24  15 NW10      30.07S
RYAN FIELD     SUNNY     75  23  14 NW12      30.09S
NOGALES        SUNNY     77  19  11 NW7       30.10S
SIERRA VISTA   SUNNY     73  15  11 NE6       30.17S
DOUGLAS        SUNNY     77  14   9 N9        30.12S
SAFFORD        SUNNY     76  12   8 NW10      30.07F
$$

AZZ532-220000-
SOUTHWEST ARIZONA

CITY           SKY/WX    TMP DP  RH WIND       PRES   REMARKS
YUMA           MOSUNNY   83  13   7 N9        30.03F
$$

CAZ041-043-047-048-061-525>527-560>570-220000-
SOUTHERN CALIFORNIA

CITY           SKY/WX    TMP DP  RH WIND       PRES   REMARKS
DOWNTOWN L.A.  SUNNY     80  39  23 W5        30.00F
L.A. AIRPORT   MOSUNNY   74  49  41 W9        30.01F
SAN DIEGO      MOSUNNY   79  42  26 NW10      30.01F
BURBANK        SUNNY     90  27  10 VRB3      30.01F
ONTARIO        PTSUNNY   90  27  10 W3        30.03F
RIVERSIDE      MOSUNNY   92  34  13 VRB6      30.02F
PALM SPRINGS   SUNNY     85  23  10 S5        30.06F
EL CENTRO NAS  PTSUNNY   84  12   6 CALM      30.05F
IMPERIAL       SUNNY     83  25  12 CALM      30.03F
BLYTHE         MOSUNNY   82  10   6 NE10      30.05F
NEEDLES        MOSUNNY   81  13   7 N21       30.09F
$$

NVZ020-UTZ003-220000-
SOUTHERN NEVADA-UTAH

CITY           SKY/WX    TMP DP  RH WIND       PRES   REMARKS
LAS VEGAS      PTSUNNY   72  17  12 CALM      30.19S
SALT LAKE CITY MOCLDY    62  41  46 NW7       30.33R
$$

NMZ009-TXZ055-220000-
NEW MEXICO-WEST TEXAS

CITY           SKY/WX    TMP DP  RH WIND       PRES   REMARKS
ALBUQUERQUE    MOCLDY    65  20  17 NE5       30.25R
EL PASO        MOSUNNY   74  15  10 N7        30.13R
$$


........................KEY........................
SKY/WX - SKY CONDITION/WEATHER
TMP    - TEMPERATURE IN FAHRENHEIT
DP     - DEW POINT IN FAHRENHEIT
RH     - RELATIVE HUMIDITY IN PERCENT
WIND   - DIRECTION AND SPEED IN MILES PER HOUR (MPH)
VRB    - VARIABLE WIND DIRECTION
PRES   - MEAN SEA LEVEL PRESSURE IN INCHES OF MERCURY
         F - FALLING PRESSURE   R - RISING PRESSURE
         S - STEADY PRESSURE
VSB    - VISIBILITY IN MILES
HX     - HEAT INDEX IN FAHRENHEIT
WCI    - WIND CHILL INDEX IN FAHRENHEIT
TC     - TEMPERATURE IN CELSIUS WHICH IS ALSO KNOWN AS
         TEMPERATURE IN CENTIGRADE
AFB    - AIR FORCE BASE
         LUKE AFB IS LUKE AIR FORCE BASE
         DAVIS-MONTHAN IS DAVIS-MONTHAN AIR FORCE BASE
NAS    - NAVAL AIR STATION
         EL CENTRO NAS IS EL CENTRO NAVAL AIR STATION
N/A    - NOT AVAILABLE





USA.gov is the U.S. government's official web portal to all federal, state and local government web resources and services.